Location: Rounton
(54.4000°N, 1.3500°W)
Time: 14:40:42
(UTC+00:00)

Vanguard 2 - Pass Details

Date: 03 December 2021
Orbit: 553 x 2936 km, 32.9° (Epoch: 23 January)

Event Time Altitude Azimuth Distance (km) Brightness Sun altitude
Rises 17:57:09 0° 242° (WSW) 4,020 12.7 -18.1°
Reaches altitude 10° 18:02:21 10° 211° (SSW) 3,601 11.5 -18.9°
Maximum altitude 18:05:05 12° 194° (SSW) 3,753 11.3 -19.3°
Drops below altitude 10° 18:08:09 10° 177° (S) 4,176 11.4 -19.7°
Sets 18:16:00 0° 151° (SSE) 5,849 11.8 -20.8°
